Куокуну

Россия / Республика Саха (Якутия)     62°05′42″N   116°12′55″E
темп.,
°C
ветер,
м/с
пор.,
м/с
влажн.,
%
обл.,
%
осадки,
мм/ч
давл.,
гПа
погр.,
м
27 февраля, сб
сб2700:00−26св12100100 0.1 102419
03:00−27с12100100 0.1 102321
06:00−27сз2298100 0.1 102462
09:00−28зсз1396100 0.1 1025108
12:00−24зсз3795100 0.1 1025380
15:00−21з5985100 0.1 1024632
18:00−22з3888100 0.0 1026541
21:00−24з3991100 0.0 1027339
28 февраля, вс
вс2800:00−28з3794100 0.0 1027180
03:00−31зюз369379 0.0 1028133
06:00−32зюз39930 0.0 1030210
09:00−31зюз410910 0.0 1030285
12:00−27зюз48890 0.0 1031480
15:00−24з478232 0.0 1030968
18:00−26зюз2588100 0.0 1032152
21:00−31зюз239267 0.0 103326
1 марта, пн
пн100:00−32зюз23930 0.0 103322
03:00−33зюз23950 0.0 103330
06:00−34зюз22960 0.0 103324
09:00−35зюз22950 0.0 103331
12:00−28зюз25920 0.0 1031332
15:00−25зюз248636 0.0 1030662
18:00−27зюз1290100 0.0 102919
21:00−32юз119350 0.0 102919
2 марта, вт
вт200:00−35зюз01970 0.0 102919
03:00−36всв0010010 0.0 102819
06:00−37св1110085 0.0 102819
09:00−37ссв1110080 0.0 102719
12:00−30св239387 0.0 1026299
15:00−27св249293 0.0 1025480
18:00−29ссв2496100 0.0 1025103
21:00−34ссв229989 0.0 102619
3 марта, ср
ср300:00−36с22100100 0.0 102719
03:00−38с22100100 0.0 102719
06:00−39ссз1210097 0.0 102818
09:00−39ссз129995 0.0 102919
12:00−33ссз239188 0.0 1028311
15:00−29ссз238793 0.0 1027496
18:00−31ссз2295100 0.0 102819
21:00−35з229669 0.0 102919